Home   Weather   Trenton   Past weeks
Flag for USA

Past Weather in Trenton, New Jersey, USA — Yesterday and Last 2 Weeks

Now
64 °F

Light rain. Overcast.


Feels Like: 64 °F
Forecast: 81 / 68 °F
Wind: 3 mph from West

Location: Mercer County Airport

Current Time: Jul 24, 2019 at 12:36:34 am

Latest Report: Jul 23, 2019 at 11:53 pm


Visibility: 10 mi

Pressure: 29.87 "Hg

Humidity: 94%

Dew Point: 62 °F

Location of TrentonLocation

Past Weather in Trenton — Graph

°F

Trenton Temperature Yesterday

Maximum temperature yesterday: 75 °F (at 1:53 pm)
Minimum temperature yesterday: 64 °F (at 10:59 pm)
Average temperature yesterday: 71 °F

High & Low Weather Summary for the Past Weeks

 TemperatureHumidityPressure
High97 °F (Jul 21, 3:53 pm)100% (Jul 11, 7:30 pm)30.08 "Hg (Jul 11, 7:30 pm)
Low64 °F (Jul 9, 5:53 am)40% (Jul 14, 5:53 pm)29.65 "Hg (Jul 22, 4:53 pm)
Average78 °F76%29.88 "Hg
* Reported Jul 8 10:53 pm — Jul 23 10:59 pm, Trenton. Weather by CustomWeather, © 2019

Note: Actual official high and low records may vary slightly from our data, if they occured in-between our weather recording intervals... More about our weather records

Advertising

Trenton Weather History for the Previous 24 Hours

Scroll right to see more
 ConditionsComfort  
Time TempWeatherWind HumidityBarometerVisibility
10:59 pm
Tue, Jul 23
64 °FRain. Fog.9 mph87%29.88 "Hg3 mi
10:02 pm66 °FHeavy rain. Fog.6 mph96%29.90 "Hg2 mi
9:53 pm66 °FHeavy rain. Fog.6 mph96%29.88 "Hg2 mi
9:07 pm68 °FLight rain. Overcast.6 mph90%29.90 "Hg10 mi
8:53 pm68 °FMostly cloudy.6 mph93%29.87 "Hg10 mi
7:53 pm68 °FOvercast.7 mph93%29.87 "Hg10 mi
6:53 pm70 °FMostly cloudy.7 mph87%29.86 "Hg10 mi
6:22 pm72 °FCloudy.3 mph81%29.87 "Hg10 mi
5:53 pm73 °FCloudy.3 mph79%29.85 "Hg10 mi
4:53 pm72 °FMostly cloudy.3 mph84%29.85 "Hg10 mi
3:53 pm72 °FMostly cloudy.6 mph84%29.85 "Hg10 mi
3:13 pm72 °FLight rain. Mostly cloudy.3 mph78%29.88 "Hg4 mi
2:53 pm73 °FCloudy.No wind76%29.85 "Hg10 mi
1:53 pm75 °FBroken clouds.3 mph74%29.84 "Hg10 mi
1:34 pm72 °FMore clouds than sun.5 mph78%29.87 "Hg10 mi
12:53 pm72 °FOvercast.7 mph78%29.83 "Hg10 mi
11:53 am73 °FMostly cloudy.3 mph79%29.80 "Hg10 mi
10:53 am72 °FPartly sunny.7 mph81%29.82 "Hg10 mi
9:53 am70 °FLight rain. Mostly cloudy.8 mph87%29.82 "Hg10 mi
8:53 am69 °FMostly cloudy.8 mph90%29.80 "Hg10 mi
7:53 am68 °FCloudy.6 mph96%29.77 "Hg10 mi
7:36 am68 °FPartly sunny.7 mph93%29.78 "Hg10 mi
6:53 am67 °FBroken clouds.7 mph97%29.73 "Hg10 mi
5:53 am67 °FHeavy rain. Fog.10 mph97%29.71 "Hg3 mi
5:28 am68 °FHeavy rain. Fog.10 mph96%29.72 "Hg2 mi
4:53 am70 °FLow clouds.12 mph93%29.68 "Hg10 mi
4:31 am71 °FMostly cloudy.12 mph93%29.70 "Hg10 mi
4:01 am72 °FLight rain. Low clouds.6 mph97%29.71 "Hg10 mi
3:27 am73 °FHeavy rain. Fog.6 mph97%29.74 "Hg2 mi
3:02 am74 °FLight rain. Mostly cloudy.5 mph97%29.74 "Hg9 mi
2:53 am74 °FLight rain. Fog.3 mph97%29.71 "Hg5 mi
2:34 am74 °FFog.3 mph97%29.74 "Hg6 mi
2:09 am74 °FPassing clouds.3 mph100%29.73 "Hg7 mi
2:00 am74 °FFog.3 mph100%29.73 "Hg6 mi
1:31 am74 °FLight rain. Partly cloudy.5 mph97%29.75 "Hg10 mi
1:11 am74 °FHeavy rain. Fog.3 mph97%29.77 "Hg2 mi
12:53 am74 °FFog.5 mph97%29.74 "Hg5 mi
12:30 am74 °FFog.5 mph97%29.77 "Hg4 mi
Weather by CustomWeather, © 2019

See weather overview